Waarnemingen

Advertentie
Mijn weer
Kvarn, Zweden (2561): temperatuur & dauwpunt: 19.11.2017 02:00:00 - 25.11.2017 02:00:00 (CET)Kvarn, Zweden (2561): windsnelheid & windstoten: 19.11.2017 02:00:00 - 25.11.2017 02:00:00 (CET)Kvarn, Zweden (2561): windrichting: 19.11.2017 02:00:00 - 25.11.2017 02:00:00 (CET)Kvarn, Zweden (2561): luchtdruk: 19.11.2017 02:00:00 - 25.11.2017 02:00:00 (CET)Kvarn, Zweden (2561): zicht: 19.11.2017 02:00:00 - 25.11.2017 02:00:00 (CET)Kvarn, Zweden (2561): neerslag: 19.11.2017 02:00:00 - 25.11.2017 02:00:00 (CET)
Datum & Tijd tt [°C] td [°C] ff [km/u] ff [kn] fx [km/u] fx [kn] dd ppp [hPa] vv [km] rr [mm]
25.11.2017 02:00:00 -1,2 -1,2 4 2 7 4 ZZO 1005,9 7 0,0
25.11.2017 01:00:00 -1,3 -1,3 0 0 7 4 N 1006,0 2,9 0,0
25.11.2017 00:00:00 -1,5 -1,5 0 0 7 4 N 1005,8 13 0,0
24.11.2017 23:00:00 -1,1 -1,1 0 0 7 4 N 1005,4 7 0,0
24.11.2017 22:00:00 -0,5 -0,5 0 0 4 2 N 1005,3 4,8 0,0
24.11.2017 21:00:00 0,7 0,7 0 0 7 4 N 1004,9 9 0,0
24.11.2017 20:00:00 1,0 1,0 0 0 7 4 N 1004,8 10 0,0
24.11.2017 19:00:00 1,3 1,2 0 0 7 4 N 1004,7 15 0,0
24.11.2017 18:00:00 0,7 0,7 0 0 7 4 N 1004,4 14 0,0
24.11.2017 17:00:00 1,9 1,9 0 0 11 6 N 1004,2 19 0,0
24.11.2017 16:00:00 3,0 2,7 4 2 11 6 Z 1004,1 26 0,0
24.11.2017 15:00:00 4,7 3,4 4 2 14 8 ZZW 1003,5 35 0,0
24.11.2017 14:00:00 5,7 3,9 7 4 18 10 Z 1003,3 35 0,0
24.11.2017 13:00:00 5,9 3,9 7 4 22 12 ZZW 1003,4 40 0,0
24.11.2017 12:00:00 5,8 4,0 11 6 22 12 ZZW 1003,0 40 0,0
24.11.2017 11:00:00 5,4 3,7 11 6 25 14 ZZW 1002,7 40 0,0
24.11.2017 10:00:00 4,9 3,6 7 4 22 12 ZZW 1002,7 45 0,0
24.11.2017 09:00:00 4,6 3,6 7 4 22 12 ZZW 1002,0 45 0,0
24.11.2017 08:00:00 5,0 3,7 11 6 22 12 ZZW 1001,4 45 0,0
24.11.2017 07:00:00 5,7 4,0 7 4 25 14 ZW 1000,0 45 0,0
24.11.2017 06:00:00 6,0 5,1 7 4 25 14 ZW 999,1 40 0,3
24.11.2017 05:00:00 5,9 4,4 11 6 25 14 ZZW 998,4 30 0,0
24.11.2017 04:00:00 4,4 3,5 7 4 18 10 Z 997,9 23 0,0
24.11.2017 03:00:00 3,6 3,2 7 4 18 10 Z 997,4 20 0,0
24.11.2017 02:00:00 3,5 3,1 4 2 11 6 Z 997,8 18 0,0
24.11.2017 01:00:00 4,5 3,8 7 4 18 10 Z 997,8 19 0,0
24.11.2017 00:00:00 5,6 4,2 7 4 22 12 ZZW 997,3 24 0,0
23.11.2017 23:00:00 6,7 5,8 11 6 25 14 ZZW 996,4 30 0,0
23.11.2017 22:00:00 8,2 7,1 11 6 32 18 ZW 995,3 24 0,3
23.11.2017 21:00:00 8,6 7,8 11 6 25 14 ZZW 993,5 35 0,0
23.11.2017 20:00:00 8,3 7,5 11 6 29 16 ZZW 993,4 45 0,0
23.11.2017 19:00:00 7,8 7,4 11 6 29 16 Z 992,7 29 0,2
23.11.2017 18:00:00 8,3 7,1 7 4 25 14 Z 992,8 20 0,3
23.11.2017 17:00:00 7,8 7,2 4 2 14 8 ZZO 992,7 45 0,0
23.11.2017 16:00:00 8,0 7,2 4 2 18 10 ZO 992,6 45 0,0
23.11.2017 15:00:00 9,5 7,8 7 4 25 14 ZO 992,8 45 0,0
23.11.2017 14:00:00 9,3 7,7 7 4 25 14 ZZO 993,8 45 0,0
23.11.2017 13:00:00 8,9 7,7 7 4 18 10 ZZW 994,4 45 0,0
23.11.2017 12:00:00 8,0 7,2 7 4 18 10 Z 994,5 35 0,0
23.11.2017 11:00:00 6,9 6,6 4 2 25 14 Z 994,7 23 0,0
23.11.2017 10:00:00 6,3 6,2 7 4 22 12 Z 994,5 19 0,0
23.11.2017 09:00:00 5,7 5,7 7 4 14 8 ZZW 995,0 9 0,0
23.11.2017 08:00:00 5,5 5,5 4 2 14 8 Z 995,1 5 0,0
23.11.2017 07:00:00 5,0 5,0 4 2 18 10 ZO 995,3 0,9 0,0
23.11.2017 06:00:00 6,2 6,2 7 4 18 10 Z 995,3 3,1 0,0
23.11.2017 05:00:00 7,1 7,1 4 2 18 10 ZZO 995,4 2,2 0,0
23.11.2017 04:00:00 7,0 7,0 7 4 18 10 Z 996,0 4,0 0,0
23.11.2017 03:00:00 6,5 6,5 4 2 18 10 Z 995,9 6 0,2
23.11.2017 02:00:00 6,1 6,1 7 4 18 10 ZZO 995,9 8 0,9
23.11.2017 01:00:00 5,2 5,2 7 4 18 10 ZZO 996,6 9 0,1
23.11.2017 00:00:00 4,5 4,5 4 2 18 10 ZO 997,3 8 1,0
22.11.2017 23:00:00 4,1 4,1 7 4 25 14 ZO 997,8 11 3,0
22.11.2017 22:00:00 3,7 3,7 7 4 25 14 ZO 998,3 9 2,0
22.11.2017 21:00:00 3,4 3,4 11 6 25 14 OZO 999,4 8 3,0
22.11.2017 20:00:00 3,1 3,1 7 4 25 14 ZO 1000,0 26 0,9
22.11.2017 19:00:00 2,5 2,5 11 6 25 14 OZO 1001,1 6 1,0
22.11.2017 18:00:00 2,1 2,1 7 4 25 14 OZO 1001,9 27 0,2
22.11.2017 17:00:00 1,7 1,7 11 6 22 12 OZO 1002,6 3,0 0,8
22.11.2017 16:00:00 1,5 1,5 11 6 29 16 OZO 1003,7 4,6 0,5
22.11.2017 15:00:00 1,1 1,1 11 6 22 12 OZO 1004,3 8 0,3
22.11.2017 14:00:00 0,9 0,8 7 4 22 12 O 1005,4 9 0,1
22.11.2017 13:00:00 0,5 0,5 7 4 18 10 O 1006,1 9 0,1
22.11.2017 12:00:00 0,0 -0,1 7 4 18 10 O 1006,9 12 0,0
22.11.2017 11:00:00 -0,9 -0,9 7 4 22 12 O 1007,6 3,0 0,3
22.11.2017 10:00:00 -1,6 -1,7 7 4 14 8 O 1008,6 2,7 0,0
22.11.2017 09:00:00 -2,0 -2,4 4 2 14 8 O 1009,3 45 0,0
22.11.2017 08:00:00 -2,4 -2,7 4 2 14 8 O 1009,7 45 0,0
22.11.2017 07:00:00 -2,6 -2,9 4 2 14 8 O 1009,7 35 0,0
22.11.2017 06:00:00 -2,8 -2,9 7 4 14 8 OZO 1010,2 20 0,0
22.11.2017 05:00:00 -2,8 -3,2 4 2 14 8 OZO 1010,8 45 0,0
22.11.2017 04:00:00 -2,9 -3,3 4 2 11 6 O 1011,1 45 0,0
22.11.2017 03:00:00 -3,2 -3,6 4 2 11 6 O 1011,5 50 0,0
22.11.2017 02:00:00 -3,3 -3,7 4 2 11 6 OZO 1012,3 45 0,0
22.11.2017 01:00:00 -3,4 -3,9 4 2 7 4 OZO 1012,4 50 0,0
22.11.2017 00:00:00 -3,3 -3,8 0 0 7 4 N 1012,6 50 0,0
21.11.2017 23:00:00 -3,2 -3,7 0 0 7 4 N 1012,9 45 0,0
21.11.2017 22:00:00 -3,0 -3,7 0 0 7 4 N 1013,1 50 0,0
21.11.2017 21:00:00 -2,9 -3,6 0 0 7 4 N 1012,7 50 0,0
21.11.2017 20:00:00 -2,6 -3,0 4 2 11 6 NW 1012,6 45 0,0
21.11.2017 19:00:00 -2,5 -2,8 7 4 11 6 NW 1013,0 45 0,0
21.11.2017 18:00:00 -2,5 -2,8 0 0 4 2 N 1012,8 45 0,0
21.11.2017 17:00:00 -2,6 -2,9 0 0 4 2 N 1012,6 45 0,0
21.11.2017 16:00:00 -2,7 -3,0 4 2 7 4 WZW 1012,4 50 0,0
21.11.2017 15:00:00 -2,7 -2,8 4 2 7 4 W 1012,1 45 0,0
21.11.2017 14:00:00 -2,6 -2,7 4 2 7 4 W 1012,1 40 0,0
21.11.2017 13:00:00 -2,5 -2,9 0 0 7 4 N 1012,1 45 0,0
21.11.2017 12:00:00 -2,6 -2,7 0 0 7 4 N 1012,2 30 0,0
21.11.2017 11:00:00 -2,9 -3,0 0 0 7 4 N 1012,3 40 0,0
21.11.2017 10:00:00 -3,4 -3,4 0 0 7 4 N 1012,3 35 0,0
21.11.2017 09:00:00 -4,6 -4,6 0 0 7 4 N 1012,1 45 0,0
21.11.2017 08:00:00 -5,6 -5,6 4 2 7 4 NW 1011,6 50 0,0
21.11.2017 07:00:00 -6,7 -7,0 0 0 4 2 N 1011,3 50 0,0
21.11.2017 06:00:00 -6,1 -6,2 0 0 4 2 N 1011,0 50 0,0
21.11.2017 05:00:00 -6,8 -6,9 0 0 4 2 N 1011,2 50 0,0
21.11.2017 04:00:00 -7,2 -7,2 0 0 0 0 N 1011,3 45 0,0
21.11.2017 03:00:00 -6,4 -6,4 0 0 0 0 N 1011,3 45 0,0
21.11.2017 02:00:00 -5,9 -6,0 0 0 4 2 N 1011,2 45 0,0
21.11.2017 01:00:00 -5,3 -5,6 0 0 11 6 N 1011,2 45 0,0
21.11.2017 00:00:00 -3,9 -4,2 4 2 11 6 WNW 1011,2 45 0,0
20.11.2017 23:00:00 -3,6 -3,9 4 2 7 4 N 1011,2 50 0,0
20.11.2017 22:00:00 -3,7 -4,1 4 2 11 6 NNW 1011,3 45 0,0
20.11.2017 21:00:00 -3,7 -4,1 4 2 14 8 NNW 1011,1 50 0,0
20.11.2017 20:00:00 -3,4 -3,8 4 2 11 6 WNW 1011,0 40 0,0
20.11.2017 19:00:00 -3,0 -3,3 7 4 11 6 NW 1010,6 35 0,0
20.11.2017 18:00:00 -3,3 -3,4 0 0 7 4 N 1011,0 50 0,0
20.11.2017 17:00:00 -3,9 -4,2 4 2 7 4 NW 1010,6 50 0,0
20.11.2017 16:00:00 -3,6 -4,1 4 2 7 4 W 1010,2 50 0,0
20.11.2017 15:00:00 -2,1 -3,7 4 2 11 6 NNW 1009,7 50 0,0
20.11.2017 14:00:00 -1,6 -3,6 7 4 14 8 NNW 1009,7 50 0,0
20.11.2017 13:00:00 -1,2 -3,2 7 4 14 8 NW 1009,6 50 0,0
20.11.2017 12:00:00 -1,8 -3,4 7 4 14 8 NW 1009,3 50 0,0
20.11.2017 11:00:00 -2,4 -3,4 4 2 11 6 NW 1009,2 50 0,0
20.11.2017 10:00:00 -2,5 -3,3 4 2 14 8 WNW 1009,1 50 0,0
20.11.2017 09:00:00 -2,2 -3,0 4 2 14 8 WNW 1008,6 50 0,0
20.11.2017 08:00:00 -2,2 -2,9 7 4 18 10 NW 1008,0 50 0,0
20.11.2017 07:00:00 -2,2 -2,9 7 4 18 10 NNW 1007,5 50 0,0
20.11.2017 06:00:00 -2,2 -2,8 7 4 18 10 NNW 1006,9 50 0,0
20.11.2017 05:00:00 -2,2 -2,5 7 4 18 10 NNW 1006,5 50 0,1
20.11.2017 04:00:00 -2,3 -2,4 7 4 14 8 NW 1006,2 6 0,2
20.11.2017 03:00:00 -2,1 -2,5 7 4 14 8 NW 1005,8 7 0,0
20.11.2017 02:00:00 -2,2 -2,9 7 4 14 8 NW 1005,6 50 0,0
20.11.2017 01:00:00 -2,3 -3,1 4 2 14 8 NW 1005,3 50 0,0
20.11.2017 00:00:00 -2,4 -3,4 7 4 11 6 WNW 1005,2 45 0,0
19.11.2017 23:00:00 -2,2 -3,5 4 2 14 8 NW 1005,1 50 0,0
19.11.2017 22:00:00 -2,0 -3,6 7 4 14 8 NW 1004,8 50 0,0
19.11.2017 21:00:00 -2,1 -3,4 4 2 14 8 NW 1004,6 50 0,0
19.11.2017 20:00:00 -2,2 -3,6 7 4 14 8 NNW 1004,2 50 0,0
19.11.2017 19:00:00 -2,3 -3,4 7 4 14 8 NNW 1003,6 50 0,0
19.11.2017 18:00:00 -2,2 -3,5 11 6 18 10 NNW 1003,2 50 0,0
19.11.2017 17:00:00 -2,2 -2,8 7 4 25 14 N 1002,8 50 0,0
19.11.2017 16:00:00 -1,8 -2,5 14 8 25 14 N 1002,2 50 0,0
19.11.2017 15:00:00 -1,0 -1,1 7 4 29 16 N 1001,1 9 0,1
19.11.2017 14:00:00 -0,4 -0,8 7 4 25 14 N 1000,2 28 0,0
19.11.2017 13:00:00 -0,2 -0,5 11 6 25 14 N 999,6 45 0,0
19.11.2017 12:00:00 -0,1 -0,1 7 4 25 14 N 998,8 35 0,0
19.11.2017 11:00:00 0,1 0,1 7 4 25 14 NNO 997,9 5 0,1
19.11.2017 10:00:00 0,2 0,2 11 6 25 14 NNO 997,0 17 0,0
19.11.2017 09:00:00 0,1 0,1 7 4 22 12 NNO 996,0 4,8 0,2
19.11.2017 08:00:00 0,2 0,2 4 2 18 10 NNO 995,2 1,9 0,2
19.11.2017 07:00:00 0,2 0,2 7 4 14 8 NO 994,1 4,2 0,1
19.11.2017 06:00:00 0,2 0,2 4 2 11 6 NO 993,6 6 0,1
19.11.2017 05:00:00 0,2 0,2 4 2 7 4 NO 993,1 5 0,5
19.11.2017 04:00:00 -0,2 -0,2 0 0 7 4 N 992,9 9 0,0
19.11.2017 03:00:00 -1,0 -1,0 0 0 7 4 N 992,8 15 0,0
19.11.2017 02:00:00 -1,9 -1,9 0 0 4 2 N 993,0 25 0,0

tt = temperatuur
td = dauwpunt
ff = windsnelheid
fx = windstoten
dd = windrichting
ppp = luchtdruk
vv = zicht
rr = neerslag

Weerstations in de omgeving